Location: Buttermere
(51.3333°N, 1.5167°W)
Time: 13:54:03
(UTC+00:00)

Cosmos 1725 Rocket - Pass Details

Date: 18 September 2020
Orbit: 961 x 991 km, 82.9° (Epoch: 25 October)

Event Time Altitude Azimuth Distance (km) Brightness Sun altitude
Rises 18:47:00 0° 196° (SSW) 3,684 7.1 -6.2°
Reaches altitude 10° 18:49:32 10° 199° (SSW) 2,736 6.5 -6.6°
Maximum altitude 18:55:47 69° 283° (WNW) 1,048 4.5 -7.5°
Drops below altitude 10° 19:02:03 10° 6° (N) 2,733 6.4 -8.5°
Sets 19:04:35 0° 9° (N) 3,680 7.1 -8.9°
